Weather History for Phoenix-Mesa Gateway Airport, AZ

Change the Weather History Date:

Tuesday, November 27, 2012

  Actual Average Record
Temperature  
Mean Temperature 63 °F -  
Max Temperature 80 °F 67 °F 82 °F (1998)
Min Temperature 46 °F 42 °F 33 °F (2001)
Degree Days  
Heating Degree Days 2    
Growing Degree Days 13 (Base 50)    
Moisture  
Dew Point 31 °F    
Average Humidity 36    
Maximum Humidity 58    
Minimum Humidity 13    
Precipitation  
Precipitation 0.00 in - - ()
Sea Level Pressure  
Sea Level Pressure 30.12 in    
Wind  
Wind Speed 5 mph (ESE)    
Max Wind Speed 9 mph    
Max Gust Speed 16 mph    
Visibility 12 miles    
Events      
Averages and records for this station are not official NWS values.
T = Trace of Precipitation, MM = Missing Value Source: NWS Daily Summary

Daily Weather History Graph

Daily Weather History Graph

Search for Another Location

Airport:

Trip Planner

Search our weather history database for the weather conditions in past years. The results will help you decide how hot, cold, wet, or windy it might be!

Date:

Astronomy

Nov. 27, 2012 Rise Set
Actual Time 7:09 AM MST 5:19 PM MST
Civil Twilight 6:42 AM MST 5:46 PM MST
Nautical Twilight 6:11 AM MST 6:16 PM MST
Astronomical Twilight 5:41 AM MST 6:46 PM MST
Moon 4:52 PM MST (11/27) 6:18 AM MST (11/27)
Length of Visible Light 11h 04m
Length of Day
10h 10m
Waxing Gibbous, 99% of the Moon is Illuminated
Nov 27
Waxing Gibbous
Nov 28
Full
Dec 6
Last Quarter
Dec 13
New
Dec 19
First Quarter

Hourly Weather History & Observations

Time (MST) Temp. Windchill Dew Point Humidity Pressure Visibility Wind Dir Wind Speed Gust Speed Precip Events Conditions
12:15 AM 53.6 °F - 32.0 °F 44% 30.12 in 10.0 mi ESE 4.6 mph - N/A   Clear
12:35 AM 51.8 °F - 33.8 °F 50% 30.12 in 10.0 mi East 4.6 mph - N/A   Clear
12:55 AM 51.8 °F - 32.0 °F 47% 30.12 in 10.0 mi Calm Calm - N/A   Clear
1:15 AM 51.8 °F - 32.0 °F 47% 30.12 in 10.0 mi Calm Calm - N/A   Clear
1:35 AM 50.0 °F - 32.0 °F 50% 30.12 in 10.0 mi SE 6.9 mph 16.1 mph N/A   Clear
1:55 AM 51.8 °F - 33.8 °F 50% 30.12 in 10.0 mi SSE 9.2 mph - N/A   Clear
2:15 AM 51.8 °F - 33.8 °F 50% 30.13 in 10.0 mi ESE 6.9 mph - N/A   Clear
2:35 AM 51.8 °F - 32.0 °F 47% 30.13 in 10.0 mi ESE 6.9 mph - N/A   Clear
2:55 AM 51.8 °F - 32.0 °F 47% 30.13 in 10.0 mi East 8.1 mph - N/A   Clear
3:15 AM 51.8 °F - 32.0 °F 47% 30.13 in 10.0 mi East 8.1 mph - N/A   Clear
3:35 AM 51.8 °F - 32.0 °F 47% 30.13 in 10.0 mi East 8.1 mph - N/A   Clear
3:55 AM 51.8 °F - 32.0 °F 47% 30.13 in 10.0 mi East 6.9 mph - N/A   Clear
4:15 AM 51.8 °F - 32.0 °F 47% 30.13 in 10.0 mi East 6.9 mph - N/A   Clear
4:35 AM 50.0 °F - 30.2 °F 47% 30.13 in 10.0 mi East 8.1 mph - N/A   Clear
4:55 AM 50.0 °F - 32.0 °F 50% 30.12 in 10.0 mi East 8.1 mph - N/A   Clear
5:15 AM 50.0 °F - 32.0 °F 50% 30.13 in 10.0 mi ESE 5.8 mph - N/A   Clear
5:47 AM 48.2 °F - 33.8 °F 58% 30.14 in 20.0 mi SE 4.6 mph - N/A   Clear
6:47 AM 46.4 °F 45.2 °F 30.2 °F 53% 30.15 in 20.0 mi East 3.5 mph - N/A   Partly Cloudy
7:47 AM 46.4 °F 44.3 °F 30.2 °F 53% 30.18 in 30.0 mi SE 4.6 mph - N/A   Partly Cloudy
8:47 AM 55.4 °F - 30.2 °F 38% 30.20 in 30.0 mi NE 4.6 mph - N/A   Partly Cloudy
9:47 AM 62.6 °F - 30.2 °F 30% 30.21 in 30.0 mi NE 4.6 mph - N/A   Partly Cloudy
10:47 AM 66.2 °F - 26.6 °F 23% 30.20 in 30.0 mi Variable 3.5 mph - N/A   Scattered Clouds
11:49 AM 73.4 °F - 30.2 °F 20% 30.17 in 30.0 mi West 4.6 mph - N/A   Scattered Clouds
12:47 PM 75.2 °F - 30.2 °F 19% 30.14 in 35.0 mi WSW 4.6 mph - N/A   Mostly Cloudy
1:47 PM 78.8 °F - 30.2 °F 17% 30.10 in 35.0 mi WNW 4.6 mph - N/A   Mostly Cloudy
2:47 PM 80.6 °F - 28.4 °F 15% 30.08 in 35.0 mi Variable 3.5 mph - N/A   Mostly Cloudy
3:47 PM 80.6 °F - 28.4 °F 15% 30.07 in 35.0 mi NW 3.5 mph - N/A   Mostly Cloudy
4:47 PM 80.6 °F - 24.8 °F 13% 30.07 in 35.0 mi NW 3.5 mph - N/A   Mostly Cloudy
5:47 PM 75.2 °F - 26.6 °F 17% 30.06 in 20.0 mi North 5.8 mph - N/A   Mostly Cloudy
6:47 PM 69.8 °F - 28.4 °F 21% 30.07 in 20.0 mi Variable 4.6 mph - N/A   Mostly Cloudy
7:47 PM 66.2 °F - 28.4 °F 24% 30.07 in 20.0 mi Variable 3.5 mph - N/A   Mostly Cloudy
7:55 PM 64.4 °F - 28.4 °F 26% 30.08 in 10.0 mi East 5.8 mph - N/A   Clear
8:15 PM 64.4 °F - 28.4 °F 26% 30.08 in 10.0 mi East 4.6 mph - N/A   Clear
8:35 PM 64.4 °F - 28.4 °F 26% 30.08 in 10.0 mi East 4.6 mph - N/A   Clear
8:48 PM 64.4 °F - 26.6 °F 24% 30.08 in 20.0 mi Variable 4.6 mph - N/A   Mostly Cloudy
8:55 PM 62.6 °F - 28.4 °F 27% 30.08 in 10.0 mi East 4.6 mph - N/A   Clear
9:15 PM 59.0 °F - 32.0 °F 36% 30.08 in 10.0 mi SE 4.6 mph - N/A   Clear
9:35 PM 60.8 °F - 30.2 °F 31% 30.09 in 10.0 mi Calm Calm - N/A   Clear
9:55 PM 60.8 °F - 32.0 °F 34% 30.10 in 10.0 mi Calm Calm - N/A   Clear
10:15 PM 60.8 °F - 32.0 °F 34% 30.10 in 10.0 mi SW 3.5 mph - N/A   Clear
10:35 PM 62.6 °F - 32.0 °F 32% 30.10 in 10.0 mi SSW 4.6 mph - N/A   Clear
10:55 PM 62.6 °F - 32.0 °F 32% 30.11 in 10.0 mi Calm Calm - N/A   Clear
11:15 PM 60.8 °F - 32.0 °F 34% 30.11 in 10.0 mi Calm Calm - N/A   Clear
11:35 PM 60.8 °F - 32.0 °F 34% 30.12 in 10.0 mi SE 3.5 mph - N/A   Clear
11:55 PM 57.2 °F - 30.2 °F 36% 30.12 in 10.0 mi East 3.5 mph - N/A   Clear